Tracking 30995 objects as of 5-Jul-2025
HD Live streaming from Space Station
objects crossing your sky now

COSMOS 1275 DEB

Track COSMOS 1275 DEB now!
10-day predictions


NORAD ID: 42187
Int'l Code: 1981-053TB
Perigee: 847.6 km
Apogee: 930.7 km
Inclination: 83.0 °
Period: 102.6 minutes
Semi major axis: 7260 km
RCS: Unknown
Launch date: June 4, 1981
Source: Commonwealth of Independent States (former USSR) (CIS)
Launch site: PLESETSK MISSILE AND SPACE COMPLEX (PKMTR)

Note: This is SATELLITE DEBRIS
Your satellite tracking list
Your tracking list is empty




NASA's NSSDC Master Catalog

Two Line Element Set (TLE):
1 42187U 81053TB  25180.42070765  .00001180  00000-0  73408-3 0  9991
2 42187  82.9639  74.5140 0057184 319.1587  40.5306 14.03406098590468
Source of the keplerian elements: AFSPC